OBJECT AU, 61777

Orbit data source: Space-Track

You're viewing an uncataloged RSO

Recently launched and/or uncataloged RSOs may have evolving metadata. Metadata may include the following, but is not limited to: Owner, Manufacturer, Bus, Motor, and Mission.

OBJECT AU, 61777 is a satellite in SSO that was launched on Mon, 04 Nov 2024 UTC via a SOYUZ-2-1B launch vehicle from the Vostochny Cosmodrome (VOSTO). Unknown objects in Earth's orbit typically refer to objects detected orbiting the Earth but have not yet been identified or cataloged. These objects could be anything from previously untracked satellites, spent rocket stages, debris from satellite collisions, or even natural meteoroids temporarily captured by Earth's gravity.

Loading next visibility...
Identifier
61777, 2024-199AU
Orbit
SSO
Country
Flag of TBDTBD
Related business
None
Manufacturer
Unknown
Mission
Operational Commercial Communications
Bus & Motor
Unknown
Mass
Unknown
Launch date (UTC)
2024-11-04 (2 years ago)
Launch vehicle
SOYUZ-2-1B
Launch site
Vostochny Cosmodrome (VOSTO)
Object type
Unknown
Shape & HBR
Box, 0.2 m
Radar Cross Section
0.035 m², Medium (>0.1 m² and < 1m²)

Expand to show TLE details & history
Last TLE update: 6 hours ago

TLE from 6 hours ago
0 OBJECT AU
1 61777U 24199AU  26264.54749109  .00013364  00000-0  25011-3 0  9991
2 61777  97.2818 137.7837 0011492 287.2433  72.7560 15.48756195149087
Epoch: 2026-09-21T13:08Z
TLE epoch observation values (Epoch: 2026-09-21T13:08:23.230Z)
Latitude
-0.00001°
Longitude
-59.73884°
Altitude
421.188 km
Speed
7.66 km/s
True Right ascension
09h 11m 08s
True Declination
0° 00' 00"
Sunlit
Object was in daylight at epoch
Visualization orbit readout
Latitude
Unknown
Longitude
Unknown
Altitude
Unknown
Speed
Unknown
Apparent Right ascension
Unknown
Apparent Declination
Unknown
Sunlit
N/A
Visualization observer readout
Local Sidereal Time
12:00:29
Azimuth
Unknown
Elevation
Unknown
Doppler factor
Unknown
Orbital elements
Apogee altitude
425.095 km
Perigee altitude
409.477 km
Semi-major axis
6,795.423 km
Eccentricity
0.00115
Inclination
97.2818°
RAAN
137.7837°
Arg. of periapsis
287.2433°
True anomaly
72.88182°
Mean anomaly
72.756°
Eccentric anomaly
72.81891°
Mean motion
3.87452 °/min
Orbital period
92.91 mins
BSTAR
0.00025011
Loading maneuver chart data...
Computing Atmospheric mass density...
Loading historical data...
Loading historical data...
Loading historical data...
Loading historical data...
Loading historical data...
Loading historical data...
Loading historical data...

Documentation

Showing up to 5 results
|